ALDINGEN Weather Reports


time (UTC)temp
C
wind
direction
speed
KPH
gust
KPH
rain 1hr
cm
rain 24hr
cm
rain mn
cm
humidity
%
barometer
mb
20260507160211 12 342 9.7 0.0 0.00 0.00 0.36 76 1014.5
20260507153210 12 11 3.2 0.0 0.00 0.00 0.36 78 1014.5
20260507150210 11 294 8.0 0.0 0.00 0.00 0.36 77 1014.7
20260507143212 11 347 6.4 0.0 0.00 0.00 0.36 81 1014.6
20260507140210 11 58 0.0 0.0 0.00 0.00 0.36 84 1014.6
20260507133210 10 335 0.0 0.0 0.00 0.00 0.36 86 1014.8
20260507130210 10 98 3.2 0.0 0.00 0.00 0.36 89 1014.8
20260507123210 10 45 1.6 0.0 0.00 0.00 0.36 86 1014.8
20260507120211 10 176 0.0 0.0 0.00 0.00 0.36 87 1014.6
20260507113210 9 355 0.0 0.0 0.00 0.00 0.36 89 1014.7
20260507110210 9 331 1.6 0.0 0.00 0.00 0.36 91 1014.6
20260507103216 8 15 1.6 0.0 0.00 0.00 0.36 93 1014.5
20260507100212 8 355 1.6 0.0 0.00 0.00 0.33 93 1014.3
20260507093210 8 17 1.6 0.0 0.00 0.00 0.33 94 1014.0
20260507090211 8 340 1.6 0.0 0.00 0.00 0.33 94 1013.7
20260507083212 8 347 1.6 0.0 0.00 0.00 0.30 92 1013.5
20260507080211 8 294 3.2 0.0 0.00 0.00 0.30 90 1013.3
20260507073212 8 252 4.8 0.0 0.00 0.00 0.30 90 1013.1
20260507070212 8 309 0.0 0.0 0.00 0.00 0.28 91 1013.0
20260507063211 8 290 6.4 0.0 0.00 0.00 0.28 92 1012.8
20260507060211 7 291 1.6 0.0 0.00 0.00 0.28 94 1012.6
20260507053211 7 199 0.0 0.0 0.00 0.00 0.28 94 1012.3
20260507050213 7 199 0.0 0.0 0.00 0.00 0.25 94 1011.9
20260507043211 6 131 1.6 0.0 0.00 0.00 0.25 95 1011.6
20260507040216 6 101 3.2 0.0 0.00 0.00 0.20 95 1011.4
20260507033211 6 114 0.0 0.0 0.00 0.00 0.13 95 1011.2
20260507030211 6 103 1.6 0.0 0.00 0.00 0.05 94 1011.1
20260507023211 6 132 0.0 0.0 0.00 0.00 0.05 94 1011.0
20260507020211 6 142 3.2 0.0 0.00 0.00 0.05 94 1010.8
20260507013212 6 119 4.8 0.0 0.00 0.00 0.05 95 1010.6
20260507010211 5 91 0.0 0.0 0.00 0.00 0.05 95 1010.4
20260507003209 6 90 0.0 0.0 0.00 0.00 0.03 95 1010.4
20260507000209 6 202 0.0 0.0 0.00 0.00 0.03 93 1010.1
20260506233209 6 250 1.6 0.0 0.00 0.00 0.03 93 1010.3
20260506230209 6 121 0.0 0.0 0.00 0.00 0.03 94 1009.9
20260506223209 7 186 0.0 0.0 0.00 0.00 0.03 93 1009.9
20260506220209 7 171 3.2 0.0 0.00 0.00 0.00 93 1010.2
20260506213209 7 102 4.8 0.0 0.00 0.00 1.50 94 1010.3
20260506210210 7 126 3.2 0.0 0.00 0.00 1.50 94 1009.9
20260506203210 7 111 0.0 0.0 0.00 0.00 1.47 94 1009.7
20260506200210 7 181 0.0 0.0 0.00 0.00 1.45 93 1009.7
20260506193215 8 0 0.0 0.0 0.00 0.00 1.42 93 1009.1
20260506190211 8 154 8.0 0.0 0.00 0.00 1.40 92 1008.8
20260506183209 8 263 3.2 0.0 0.00 0.00 1.40 92 1008.5
20260506180216 8 223 4.8 0.0 0.00 0.00 1.37 90 1008.2
20260506173210 8 246 4.8 0.0 0.00 0.00 1.35 90 1007.8
20260506170215 9 264 12.9 0.0 0.00 0.00 1.35 90 1007.4
20260506163210 9 200 3.2 0.0 0.00 0.00 1.35 91 1007.4